[[{"header":{"parameterUnit":"m.s-1","parameterCategory":1,"la1":30.2991,"la2":30.254,"lo1":-89.0895,"lo2":-89.0444,"dy":0.0017,"dx":0.0017,"nx":28,"ny":28,"refTime":"2024-07-10T21:00:00:Z","depth":0,"parameterNumber":2,"parameterNumberName":"U-component_of_WINDS"},"data":[0,0,0,0,0,0,0,0,0,0,0,0,0,0,0,0,0,0,0,0,0,0,0,0,0,0,0,0,0,0,0,0,0,0,0,0,0,0,0,0,0,0,0,0,0,0,0,0,0,0,0,0,0,0,0,0,0,0,2.8161,2.8162,0,2.8299,2.8301,2.8303,2.828,2.8278,2.8275,2.8273,2.842,2.8426,2.8432,0,0,0,0,0,0,0,0,0,0,0,0,0,2.7879,2.7884,2.8161,2.8162,2.8164,2.8299,2.8301,2.8303,2.8281,2.8278,2.8275,2.8272,2.8418,2.8425,2.8432,0,0,0,0,0,0,0,0,0,0,0,0,0,2.8008,2.7886,2.816,2.8169,2.8171,2.8299,2.8301,2.8304,2.8281,2.8278,2.8274,2.8271,2.8415,2.8424,2.8433,2.8562,0,0,2.8461,2.8465,0,0,0,0,0,0,0,0,2.8001,2.8018,2.8166,2.8169,2.8171,2.8269,2.8255,2.839,2.8282,2.824,2.8273,2.8269,2.8373,2.8385,2.8419,2.8569,2.8575,2.8462,2.8468,2.8472,2.8474,0,0,0,0,0,0,0,2.7992,2.8012,2.8216,2.8168,2.8172,2.8167,2.8181,2.8281,2.8325,2.8243,2.8242,2.8258,2.8373,2.841,2.8423,2.8578,2.8462,2.847,2.8476,2.8479,2.8837,2.8841,0,0,0,0,0,0,2.798,2.8005,2.8211,2.822,2.8075,2.8175,2.8191,2.8241,2.8324,2.8333,2.8261,2.8257,2.8396,2.8412,2.8428,2.8582,2.8472,2.848,2.8486,2.8833,2.8838,2.8842,0,0,0,0,0,0,2.7974,2.7998,2.8206,2.8112,2.8138,2.8184,2.824,2.8246,2.8283,2.8337,2.8345,2.8291,2.8394,2.8415,2.8528,2.8586,2.8485,2.8493,2.8829,2.8835,2.884,2.8892,0,0,0,0,0,0,2.7966,2.7996,2.8045,2.8113,2.8143,2.8303,2.8244,2.8251,2.8298,2.8293,2.8367,2.8376,2.8393,2.8514,2.8537,2.8597,2.85,2.8824,2.8831,2.8838,2.8885,2.8899,2.8911,0,0,0,0,0,2.7956,2.8056,2.8048,2.8073,2.8205,2.8307,2.8324,2.834,2.8303,2.8353,2.8387,2.8373,2.8577,2.8526,2.8552,2.8615,2.882,2.8829,2.8838,2.888,2.8896,2.891,0,0,0,0,0,0,2.7996,2.8065,2.8057,2.8182,2.8238,2.8303,2.8366,2.8358,2.8427,2.842,2.8439,2.8456,2.857,2.8605,2.8547,2.8743,2.8693,2.8708,2.8716,2.8733,2.8745,2.8734,2.8508,0,0,0,0,0,2.8019,2.8095,2.8152,2.8257,2.8285,2.8321,2.8366,2.8373,2.8432,2.8457,2.85,2.8559,2.8636,2.8687,2.8761,2.889,2.8905,2.8947,2.896,2.897,2.8982,2.905,2.9069,2.8872,2.8872,2.8872,0,0,2.8069,2.8116,2.8163,2.8266,2.831,2.8388,2.8341,2.8426,2.8484,2.847,2.8578,2.8612,2.868,2.8801,2.8857,2.8833,2.9039,2.8981,2.8989,2.8995,2.9061,2.908,2.9096,2.8878,2.8877,2.8876,0,0,2.8197,2.8241,2.8332,2.8377,2.8444,2.8466,2.8488,2.8553,2.8574,2.8683,2.8673,2.8743,2.8876,2.8923,2.8965,2.9109,2.9098,2.9133,2.9199,2.9266,2.9281,2.9295,2.9344,2.9362,2.9145,2.9145,2.9145,0,2.8251,2.8366,2.838,2.8465,2.851,2.8499,2.8591,2.8634,2.8723,2.8754,2.8726,2.889,2.8936,2.9066,2.9101,2.9136,2.9161,2.9124,2.9278,2.9292,2.9305,2.9352,2.9371,2.9149,2.9148,2.9148,2.9148,0,2.8427,2.8507,2.8573,2.8655,2.8708,2.8797,2.8824,2.8876,2.8878,2.8904,2.9013,2.9067,2.915,2.9182,2.9187,2.9313,2.9296,2.9273,2.9223,2.9327,2.9371,2.939,2.9154,2.9153,2.9152,2.9151,0,0,2.8586,2.8673,2.8696,2.8732,2.8805,2.8867,2.8955,2.9034,2.9077,2.9139,2.9211,2.9323,2.9301,2.9348,2.9358,2.9417,2.9524,2.9386,2.9388,2.9408,2.9664,2.9679,2.97,2.9518,2.9521,2.9524,2.9657,0,2.872,2.8871,2.8885,2.9022,2.9095,2.9085,2.9161,2.9213,2.9239,2.9306,2.9336,2.9413,2.9379,2.9407,2.9465,2.9499,2.9575,2.949,2.9585,2.9588,2.9566,2.9724,2.9741,2.9864,2.9675,2.9678,2.968,0,2.8896,2.8959,2.9102,2.9161,2.9193,2.926,2.9332,2.9397,2.9456,2.947,2.9522,2.9523,2.9612,2.956,2.9683,2.9624,2.9664,2.9686,2.9692,2.97,2.9639,2.9734,2.9904,2.9922,2.9708,2.9706,2.9704,0,2.8994,2.9116,2.9216,2.9248,2.932,2.9367,2.94,2.9455,2.9501,2.9565,2.9594,2.9669,2.9709,2.9767,2.9788,2.9748,2.991,2.9859,2.9924,2.9923,2.9957,2.9954,3.0134,2.9986,2.9986,2.9986,2.9985,0,2.9141,2.9228,2.926,2.9322,2.9419,2.9435,2.9531,2.9561,2.961,2.9677,2.9675,2.9738,2.9763,2.9831,2.9848,2.9946,2.9965,2.9979,2.9982,2.9978,2.9976,3.0004,2.9995,2.9991,2.999,2.9989,2.9988,0,2.9267,2.9292,2.94,2.9458,2.9475,2.9544,2.9594,2.9654,2.9678,2.9763,2.9784,2.9823,2.9902,2.9929,3.0026,3.0037,3.015,3.0148,3.013,3.013,3.0192,3.0185,3.0394,3.0421,3.0257,3.0259,3.026,0,2.9358,2.9424,2.9488,2.9532,2.9566,2.9637,2.9683,2.9701,2.9749,2.9819,2.987,2.9948,3.0011,3.0138,3.0175,3.0249,3.0246,3.0315,3.0258,3.025,3.0245,3.0239,3.0245,3.0325,3.0327,3.0328,3.0329,0,2.9516,2.9524,2.9589,2.9658,2.9712,2.9769,2.9823,2.9859,2.9885,2.9939,3.0019,3.0067,3.0164,3.0241,3.0316,3.035,3.0344,3.0347,3.0365,3.0361,3.0346,3.0352,3.0156,3.0342,3.034,3.0339,3.0339,3.0338,2.9625,2.9682,2.9736,2.9808,2.985,2.99,2.9957,2.9988,3.0054,3.0133,3.014,3.0225,3.0281,3.038,3.0417,3.0485,3.0466,3.0493,3.05,3.0505,3.0509,3.0337,3.0499,3.0499,3.0498,3.0498,3.0498,0,2.9781,2.9814,2.988,2.9954,3.0011,2.9998,3.0057,3.0105,3.0179,3.0231,3.0292,3.0383,3.0457,3.0499,3.0573,3.0619,3.0618,3.0638,3.0633,3.0641,3.0523,3.0498,3.0637,3.0637,3.0637,3.0637,3.0637,3.0637,2.9868,2.9963,2.9978,3.0093,3.0127,3.0208,3.0242,3.0288,3.0329,3.0429,3.049,3.0516,3.0564,3.0641,3.0708,3.0719,3.0746,3.0767,3.0775,3.0664,3.065,3.0636,3.0613,3.0773,3.0773,3.0888,3.0889,3.0889]},{"header":{"parameterUnit":"m.s-1","parameterCategory":1,"la1":30.2991,"la2":30.254,"lo1":-89.0895,"lo2":-89.0444,"dy":0.0017,"dx":0.0017,"nx":28,"ny":28,"refTime":"2024-07-10T21:00:00:Z","depth":0,"parameterNumber":3,"parameterNumberName":"V-component_of_WINDS"},"data":[0,0,0,0,0,0,0,0,0,0,0,0,0,0,0,0,0,0,0,0,0,0,0,0,0,0,0,0,0,0,0,0,0,0,0,0,0,0,0,0,0,0,0,0,0,0,0,0,0,0,0,0,0,0,0,0,0,0,1.1581,1.158,0,1.1571,1.1571,1.1571,1.1542,1.1542,1.1541,1.1541,1.1532,1.1532,1.1532,0,0,0,0,0,0,0,0,0,0,0,0,0,1.1574,1.1574,1.1581,1.158,1.158,1.1571,1.1571,1.1571,1.1543,1.1542,1.1541,1.154,1.1531,1.1532,1.1532,0,0,0,0,0,0,0,0,0,0,0,0,0,1.1572,1.1574,1.1581,1.1565,1.1563,1.1571,1.1571,1.1571,1.1543,1.1542,1.1541,1.154,1.1531,1.1532,1.1532,1.1555,0,0,1.1534,1.1534,0,0,0,0,0,0,0,0,1.1572,1.1572,1.1567,1.1566,1.1564,1.1557,1.1566,1.1566,1.1543,1.1551,1.1541,1.1539,1.1541,1.1541,1.1541,1.1554,1.1554,1.1534,1.1534,1.1535,1.1535,0,0,0,0,0,0,0,1.1572,1.1572,1.1577,1.1567,1.1566,1.1559,1.1557,1.1565,1.1551,1.155,1.1548,1.1547,1.154,1.1541,1.1541,1.1554,1.1534,1.1535,1.1535,1.1535,1.1585,1.1586,0,0,0,0,0,0,1.1574,1.1573,1.1577,1.1577,1.1566,1.1559,1.1558,1.156,1.1551,1.1549,1.1548,1.1546,1.154,1.154,1.154,1.1565,1.1535,1.1535,1.1535,1.1584,1.1585,1.1586,0,0,0,0,0,0,1.1574,1.1575,1.1578,1.1574,1.1574,1.1561,1.1564,1.1561,1.1561,1.155,1.1547,1.1551,1.1539,1.1539,1.1551,1.1565,1.1535,1.1536,1.1583,1.1584,1.1586,1.1616,0,0,0,0,0,0,1.1574,1.1575,1.1584,1.1574,1.1574,1.1589,1.1564,1.1561,1.1562,1.1559,1.1552,1.155,1.1539,1.1551,1.1552,1.1565,1.1536,1.1581,1.1583,1.1585,1.1614,1.1619,1.1623,0,0,0,0,0,1.1574,1.1593,1.1584,1.1585,1.1584,1.159,1.159,1.1576,1.1563,1.1572,1.1564,1.155,1.1563,1.1552,1.1553,1.1567,1.1581,1.1583,1.1585,1.1612,1.1618,1.1622,0,0,0,0,0,0,1.1604,1.1591,1.1582,1.1598,1.1595,1.1585,1.1595,1.1583,1.1584,1.1581,1.1564,1.1563,1.1577,1.1573,1.1561,1.1588,1.1569,1.1572,1.159,1.1595,1.1599,1.1599,1.1537,0,0,0,0,0,1.1613,1.1618,1.1607,1.1622,1.1621,1.1608,1.161,1.16,1.1597,1.1595,1.1589,1.1586,1.1589,1.1592,1.1595,1.1613,1.1611,1.1623,1.1627,1.1631,1.1633,1.1643,1.1648,1.1594,1.1594,1.1594,0,0,1.163,1.1624,1.1628,1.1628,1.1624,1.163,1.1607,1.1615,1.1619,1.1596,1.1607,1.1602,1.1598,1.1613,1.162,1.161,1.1648,1.1634,1.1637,1.1637,1.1645,1.1651,1.1655,1.1595,1.1595,1.1595,0,0,1.1665,1.1661,1.1673,1.167,1.1665,1.1656,1.1659,1.1651,1.1647,1.1657,1.164,1.1645,1.1652,1.1649,1.1649,1.1683,1.167,1.1684,1.1707,1.1716,1.172,1.1724,1.1735,1.174,1.1687,1.1687,1.1687,0,1.1687,1.1695,1.1681,1.1689,1.1689,1.1669,1.1681,1.1679,1.1675,1.1676,1.1666,1.1673,1.1669,1.1683,1.1691,1.1692,1.1695,1.1685,1.1721,1.1724,1.1727,1.1738,1.1743,1.1689,1.1688,1.1688,1.1688,0,1.1723,1.1728,1.1739,1.1735,1.1737,1.1747,1.1734,1.1737,1.1727,1.172,1.1731,1.1725,1.1726,1.1729,1.1719,1.1742,1.1736,1.1723,1.1705,1.1734,1.1744,1.1748,1.1691,1.169,1.169,1.1689,0,0,1.1775,1.1764,1.1768,1.1766,1.1759,1.1763,1.1773,1.1773,1.1776,1.1775,1.1782,1.1788,1.1776,1.1776,1.1766,1.1774,1.1801,1.176,1.176,1.1767,1.1825,1.1834,1.1839,1.1792,1.1793,1.1793,1.1825,0,1.1808,1.1822,1.181,1.1827,1.1832,1.1813,1.1821,1.1818,1.1811,1.1815,1.1808,1.1812,1.1796,1.1796,1.1803,1.1796,1.1812,1.1793,1.1798,1.1799,1.1799,1.1844,1.1853,1.1883,1.1829,1.1829,1.183,0,1.1847,1.1847,1.1865,1.1856,1.1858,1.1865,1.1865,1.1869,1.1865,1.1859,1.1859,1.1847,1.1855,1.1838,1.1849,1.1837,1.1838,1.1835,1.1836,1.1835,1.1815,1.1844,1.1892,1.1897,1.1836,1.1835,1.1835,0,1.1883,1.1887,1.1898,1.1897,1.1888,1.1894,1.189,1.1885,1.1887,1.1886,1.1887,1.1888,1.1888,1.1889,1.1878,1.1866,1.189,1.1872,1.1886,1.1886,1.1891,1.1891,1.194,1.1894,1.1894,1.1893,1.1893,0,1.192,1.1931,1.1914,1.1921,1.1933,1.1918,1.1931,1.1926,1.1921,1.1927,1.1911,1.1916,1.1901,1.1905,1.1896,1.1907,1.1907,1.1903,1.19,1.1904,1.1904,1.1904,1.1901,1.1895,1.1894,1.1894,1.1894,0,1.1962,1.1951,1.1961,1.1952,1.195,1.1959,1.1951,1.1957,1.1949,1.1956,1.1957,1.1945,1.1949,1.1938,1.194,1.1934,1.1949,1.1944,1.195,1.1948,1.1963,1.1961,1.2013,1.2019,1.1969,1.197,1.197,0,1.1985,1.1994,1.1985,1.1987,1.1985,1.1989,1.199,1.1976,1.1978,1.1974,1.198,1.1983,1.1984,1.1991,1.1982,1.1984,1.1978,1.1996,1.1978,1.1981,1.1977,1.1976,1.1977,1.1999,1.2,1.2,1.2001,0,1.2029,1.2023,1.2025,1.2025,1.2027,1.2026,1.2024,1.2027,1.2013,1.2015,1.2019,1.202,1.2022,1.2024,1.2024,1.202,1.2008,1.2006,1.201,1.2013,1.2016,1.2014,1.196,1.2005,1.2005,1.2004,1.2004,1.2004,1.2062,1.2068,1.2063,1.2065,1.2063,1.2062,1.2067,1.206,1.2062,1.2063,1.2055,1.206,1.2056,1.2054,1.2052,1.2056,1.2047,1.2052,1.2053,1.2054,1.2057,1.2017,1.2056,1.2055,1.2055,1.2055,1.2055,0,1.2103,1.2099,1.2102,1.21,1.2102,1.209,1.2088,1.2091,1.2095,1.2092,1.2094,1.2098,1.21,1.2092,1.2094,1.2098,1.2093,1.2099,1.2098,1.2097,1.2064,1.2061,1.2104,1.2104,1.2103,1.2103,1.2103,1.2103,1.2125,1.2135,1.2129,1.2137,1.2133,1.2137,1.2137,1.2136,1.2134,1.2139,1.2141,1.2135,1.2131,1.2131,1.2133,1.2131,1.2132,1.214,1.2136,1.2105,1.21,1.2095,1.2092,1.214,1.2141,1.2168,1.2169,1.2169]}]]